Location: Newark
(39.0083°N, 20.7336°E)
Time: 04:00:56
(UTC+00:00)

ISS - Pass Details

Date: 01 October 2021
Orbit: 417 x 423 km, 51.6° (Epoch: 15 October)

Event Time Altitude Azimuth Distance (km) Brightness Sun altitude
Rises 18:14:04 0° 313° (NW) 2,366 1.1 -22.9°
Reaches altitude 10° 18:16:15 10° 321° (NW) 1,502 -0.2 -23.3°
Enters shadow 18:18:07 26° 343° (NNW) 858 -1.9 -23.6°
